Regional Weather Roundup
Issued by NWS

Home | Current Version | Previous Version | Text Only | Print | Product List | Glossary On
Versions: 1 2 3 4 5 6 7 8 9 10 11 12 13 14 15 16 17 18 19 20 21 22 23 24 25 26 27 28 29 30 31 32 33 34 35 36 37 38 39 40 41 42 43 44 45 46 47 48 49 50
000
ASUS43 KLMK 070602
RWRKY
KENTUCKY REGIONAL WEATHER ROUNDUP
NATIONAL WEATHER SERVICE LOUISVILLE KY
200 AM EDT THU MAY 07 2015

NOTE "FAIR" INDICATES FEW OR NO CLOUDS BELOW 12,000 FEET
WITH NO SIGNIFICANT WEATHER AND/OR OBSTRUCTIONS TO VISIBILITY.

KYZ001>023-026-027-061>063-070>075-070700-
WESTERN AND SOUTH CENTRAL KENTUCKY

CITY           SKY/WX    TMP DP  RH WIND       PRES   REMARKS
PADUCAH        CLEAR     63  54  72 CALM      30.06S
HENDERSON      CLEAR     61  55  82 CALM      30.07S
OWENSBORO      CLEAR     65  60  83 CALM      30.08F
HOPKINSVILLE   NOT AVBL
BOWLING GREEN  PTCLDY    66  59  78 CALM      30.09F
GLASGOW        NOT AVBL
$$

KYZ024-025-028>034-038-045-046-053-070700-
NORTH CENTRAL KENTUCKY

CITY           SKY/WX    TMP DP  RH WIND       PRES   REMARKS
LOUISVILLE/SDF PTCLDY    71  58  63 W3        30.09F
LOUISVILLE/LOU CLEAR     67  58  72 CALM      30.09F
FORT KNOX      PTCLDY    63  57  82 CALM      30.08F
$$

KYZ035>037-039>044-047>052-055>060-089>105-070700-
NORTHEAST KENTUCKY

CITY           SKY/WX    TMP DP  RH WIND       PRES   REMARKS
LEXINGTON      PTCLDY    62  57  83 SE6       30.12S
COVINGTON      CLEAR     67  54  63 CALM      30.12S
FRANKFORT      PTCLDY    63  57  81 CALM      30.10F
$$

KYZ054-064>069-076>088-106>120-070700-
SOUTHEAST KENTUCKY

CITY           SKY/WX    TMP DP  RH WIND       PRES   REMARKS
JACKSON        CLOUDY    70  53  54 CALM      30.14F
LONDON         PTCLDY    62  55  77 CALM      30.13S
SOMERSET       NOT AVBL
MIDDLESBORO    NOT AVBL
MONTICELLO     CLEAR     58  57  96 CALM      30.14F
$$



USA.gov is the U.S. government's official web portal to all federal, state and local government web resources and services.